Overview Statistics Trail Chart Weather Telemetry Raw packets
 

This is the latest recevied weather packets stored in our database for station/object DB7GV-8. If no packets are shown the sender has not sent any weather packets the latest 10 day(s).

<< 13 14 15 16 17 18 19 >>
Time Temp. Humidity Pressure Rain* Wind** Luminosity Snow
1777402560 16.11° C 51% 1016.7 hPa - - - -
1777401655 16.67° C 49% 1016.4 hPa - - - -
1777400749 17.78° C 48% 1016.3 hPa - - - -
1777399844 17.78° C 48% 1016.2 hPa - - - -
1777398938 18.33° C 46% 1016.2 hPa - - - -
1777398032 18.89° C 45% 1016.2 hPa - - - -
1777397127 19.44° C 42% 1016.1 hPa - - - -
1777396222 20° C 38% 1016 hPa - - - -
1777395316 20.56° C 34% 1015.9 hPa - - - -
1777394411 21.11° C 33% 1015.9 hPa - - - -
1777393506 21.11° C 32% 1015.8 hPa - - - -
1777392600 21.67° C 30% 1015.8 hPa - - - -
1777391695 21.67° C 30% 1015.7 hPa - - - -
1777390790 22.22° C 28% 1015.6 hPa - - - -
1777389884 22.78° C 27% 1015.6 hPa - - - -
1777388978 22.78° C 28% 1015.5 hPa - - - -
1777388073 23.33° C 28% 1015.6 hPa - - - -
1777387168 23.89° C 28% 1015.6 hPa - - - -
1777386262 23.33° C 27% 1015.5 hPa - - - -
1777385357 24.44° C 28% 1015.5 hPa - - - -
1777384452 24.44° C 27% 1015.5 hPa - - - -
1777383547 24.44° C 26% 1015.6 hPa - - - -
1777382641 25° C 24% 1015.6 hPa - - - -
1777381735 25° C 26% 1015.7 hPa - - - -
1777380830 25° C 25% 1015.8 hPa - - - -

* Rain since midnight (hover to see other rain measurements)
** Current wind speed in m/s (hover to see current wind gust speed)